[[{"header":{"parameterUnit":"m.s-1","parameterCategory":2,"la1":30.2991,"la2":30.254,"lo1":-89.0895,"lo2":-89.0444,"dy":0.0017,"dx":0.0017,"nx":28,"ny":28,"refTime":"2023-08-07T09:00:00:Z","depth":"0","parameterNumber":2,"parameterNumberName":"U-component_of_CURRENTS"},"data":[0,0,0,0,0,0,0,0,0,0,0,0,0,0,0,0,0,0,0,0,0,0,0,0,0,0,0,0,0,0,0,0,0,0,0,0,0,0,0,0,0,0,0,0,0,0,0,0,0,0,0,0,0,0,0,0,0,0,0.3459,0.346,0,0.3518,0.3519,0.3519,0.3557,0.3557,0.3557,0.3557,0.3594,0.3595,0.3596,0,0,0,0,0,0,0,0,0,0,0,0,0,0.3397,0.3398,0.3459,0.346,0.3461,0.3518,0.3519,0.352,0.3557,0.3557,0.3557,0.3557,0.3594,0.3595,0.3596,0,0,0,0,0,0,0,0,0,0,0,0,0,0.3438,0.3399,0.3459,0.3486,0.3488,0.3518,0.3519,0.352,0.3557,0.3557,0.3557,0.3558,0.3594,0.3595,0.3596,0.36,0,0,0.36,0.3601,0,0,0,0,0,0,0,0,0.3436,0.344,0.3481,0.3484,0.3487,0.3529,0.351,0.3545,0.3557,0.3532,0.3557,0.3558,0.357,0.3573,0.3585,0.3602,0.3603,0.36,0.3601,0.3602,0.3602,0,0,0,0,0,0,0,0.3433,0.3438,0.3484,0.3482,0.3485,0.35,0.3506,0.3517,0.3549,0.3534,0.3537,0.3542,0.3571,0.3584,0.3586,0.3604,0.36,0.3601,0.3602,0.3603,0.3745,0.3748,0,0,0,0,0,0,0.3422,0.3435,0.3482,0.3485,0.346,0.3501,0.3508,0.3516,0.355,0.3555,0.3541,0.3543,0.3582,0.3585,0.3588,0.3669,0.3602,0.3603,0.3603,0.3742,0.3746,0.3749,0,0,0,0,0,0,0.3421,0.3426,0.3479,0.3461,0.3468,0.3502,0.3511,0.3517,0.3537,0.3555,0.356,0.3555,0.3582,0.3586,0.3637,0.3668,0.3603,0.3604,0.3739,0.3744,0.3748,0.3784,0,0,0,0,0,0,0.3419,0.3425,0.3438,0.346,0.3469,0.3501,0.3511,0.3518,0.3538,0.3542,0.3568,0.3572,0.3583,0.3636,0.3638,0.3668,0.3605,0.3735,0.3741,0.3746,0.3779,0.3789,0.3798,0,0,0,0,0,0.3417,0.3423,0.3438,0.3444,0.3482,0.3501,0.3508,0.3532,0.3539,0.355,0.3593,0.3571,0.3674,0.3639,0.3642,0.3672,0.3732,0.3739,0.3746,0.3774,0.3787,0.3797,0,0,0,0,0,0,0.343,0.3428,0.3445,0.346,0.3484,0.3507,0.3514,0.3534,0.3575,0.358,0.3601,0.3609,0.368,0.3673,0.3634,0.3738,0.3703,0.371,0.3724,0.3735,0.3745,0.3749,0.3607,0,0,0,0,0,0.3432,0.3421,0.3445,0.3462,0.3464,0.3492,0.3505,0.3524,0.3556,0.3574,0.3596,0.3639,0.3709,0.3717,0.3768,0.3797,0.3827,0.3827,0.3836,0.3844,0.3855,0.3938,0.3955,0.3772,0.3772,0.3772,0,0,0.3447,0.3442,0.3443,0.3461,0.3473,0.3497,0.35,0.3516,0.3559,0.357,0.3626,0.3676,0.3734,0.38,0.3827,0.379,0.3916,0.3852,0.3858,0.3865,0.3947,0.3964,0.398,0.3776,0.3776,0.3775,0,0,0.3449,0.3459,0.3445,0.346,0.3473,0.3498,0.3503,0.353,0.3561,0.3621,0.3671,0.374,0.3795,0.3858,0.3898,0.3984,0.3983,0.3996,0.4017,0.4097,0.4113,0.4126,0.4195,0.4215,0.3975,0.3975,0.3975,0,0.3468,0.3468,0.3452,0.3451,0.3475,0.3499,0.3523,0.3562,0.3613,0.3649,0.3644,0.3798,0.3834,0.3952,0.3996,0.4003,0.4045,0.396,0.4107,0.4121,0.4134,0.4202,0.4223,0.3977,0.3977,0.3977,0.3977,0,0.3457,0.3477,0.3469,0.348,0.3504,0.3525,0.3572,0.3609,0.3647,0.3692,0.3804,0.387,0.3952,0.3988,0.402,0.4141,0.4142,0.4126,0.4067,0.4155,0.4221,0.4242,0.3981,0.398,0.3979,0.3979,0,0,0.3427,0.346,0.3453,0.3478,0.3523,0.3536,0.3611,0.3685,0.3725,0.3799,0.3864,0.4011,0.4027,0.4078,0.4122,0.4193,0.4329,0.4195,0.4198,0.4245,0.451,0.4469,0.4488,0.4334,0.4338,0.4341,0.4521,0,0.3426,0.3449,0.3464,0.3512,0.3537,0.359,0.3647,0.3718,0.3779,0.384,0.3942,0.4026,0.4066,0.4101,0.4188,0.43,0.4386,0.4282,0.4436,0.444,0.4378,0.4512,0.4311,0.4451,0.4541,0.4545,0.4547,0,0.3393,0.3417,0.3466,0.3533,0.3542,0.358,0.3663,0.3718,0.3824,0.3868,0.3968,0.4031,0.4179,0.4174,0.4412,0.4343,0.4441,0.4519,0.4526,0.4489,0.4439,0.4381,0.4485,0.4313,0.4579,0.4577,0.4574,0,0.3359,0.3411,0.3457,0.348,0.3557,0.359,0.3637,0.3728,0.3764,0.3885,0.3916,0.4085,0.4158,0.4323,0.449,0.4461,0.4729,0.4695,0.4759,0.4756,0.4617,0.4595,0.4555,0.4872,0.4872,0.4871,0.4871,0,0.335,0.3373,0.3441,0.3461,0.3492,0.3557,0.3598,0.3662,0.3741,0.3786,0.3916,0.3987,0.4201,0.4362,0.4512,0.471,0.4753,0.4806,0.4817,0.4625,0.4603,0.447,0.4382,0.4878,0.4877,0.4875,0.4874,0,0.3309,0.3359,0.3391,0.3462,0.3477,0.3492,0.3551,0.3571,0.3666,0.3728,0.3767,0.3942,0.4167,0.4375,0.4643,0.4725,0.4784,0.4974,0.4733,0.4713,0.4582,0.4503,0.4424,0.4323,0.5074,0.5075,0.5075,0,0.3315,0.3329,0.3364,0.3352,0.3381,0.3415,0.3425,0.352,0.355,0.3704,0.3727,0.3947,0.4095,0.4462,0.4673,0.4935,0.479,0.4867,0.4782,0.458,0.4502,0.4351,0.426,0.462,0.4616,0.4614,0.4611,0,0.3299,0.3289,0.3291,0.3266,0.3265,0.3284,0.3325,0.3332,0.3449,0.3523,0.3653,0.3784,0.4132,0.4311,0.4627,0.4757,0.4587,0.4816,0.4667,0.4209,0.3982,0.3884,0.4491,0.4586,0.4588,0.459,0.4592,0.4593,0.3245,0.3217,0.3182,0.3137,0.3131,0.312,0.3108,0.3179,0.3221,0.3301,0.3514,0.3634,0.3912,0.4337,0.4428,0.4422,0.4477,0.4336,0.4285,0.4174,0.3977,0.4535,0.4597,0.4599,0.4601,0.4603,0.4605,0,0.3133,0.3084,0.3054,0.2975,0.2908,0.2968,0.2993,0.2973,0.2991,0.3123,0.3253,0.3434,0.3608,0.3803,0.3978,0.3893,0.3767,0.3792,0.3497,0.3461,0.4009,0.3885,0.3719,0.3719,0.3719,0.3719,0.372,0.372,0.3047,0.2948,0.2912,0.2747,0.2705,0.2631,0.2625,0.2643,0.2709,0.2749,0.2808,0.2965,0.324,0.3415,0.3375,0.333,0.3097,0.3007,0.3042,0.3358,0.3402,0.3444,0.3306,0.3021,0.302,0.2361,0.2355,0.2351]},{"header":{"parameterUnit":"m.s-1","parameterCategory":2,"la1":30.2991,"la2":30.254,"lo1":-89.0895,"lo2":-89.0444,"dy":0.0017,"dx":0.0017,"nx":28,"ny":28,"refTime":"2023-08-07T09:00:00:Z","depth":"0","parameterNumber":3,"parameterNumberName":"V-component_of_CURRENTS"},"data":[0,0,0,0,0,0,0,0,0,0,0,0,0,0,0,0,0,0,0,0,0,0,0,0,0,0,0,0,0,0,0,0,0,0,0,0,0,0,0,0,0,0,0,0,0,0,0,0,0,0,0,0,0,0,0,0,0,0,-0.0068,-0.0068,0,-0.0148,-0.015,-0.0151,-0.023,-0.0231,-0.0231,-0.0231,-0.0328,-0.033,-0.0332,0,0,0,0,0,0,0,0,0,0,0,0,0,-0.016,-0.0157,-0.0068,-0.0068,-0.0069,-0.0148,-0.015,-0.0152,-0.023,-0.0231,-0.0231,-0.0232,-0.0327,-0.033,-0.0332,0,0,0,0,0,0,0,0,0,0,0,0,0,-0.0173,-0.0157,-0.0068,-0.0113,-0.0118,-0.0148,-0.015,-0.0152,-0.023,-0.0231,-0.0231,-0.0232,-0.0327,-0.033,-0.0333,-0.0338,0,0,-0.0342,-0.0344,0,0,0,0,0,0,0,0,-0.0172,-0.017,-0.0106,-0.011,-0.0115,-0.0175,-0.0218,-0.0213,-0.023,-0.0193,-0.0231,-0.0232,-0.0274,-0.0281,-0.0303,-0.0342,-0.0346,-0.0343,-0.0345,-0.0346,-0.0347,0,0,0,0,0,0,0,-0.0171,-0.0169,-0.0106,-0.0106,-0.0112,-0.019,-0.0192,-0.0219,-0.0233,-0.0197,-0.0201,-0.02,-0.0277,-0.03,-0.0306,-0.0348,-0.0343,-0.0345,-0.0347,-0.0349,-0.0349,-0.0347,0,0,0,0,0,0,-0.0138,-0.0166,-0.0103,-0.0107,-0.014,-0.0187,-0.0189,-0.016,-0.0233,-0.0243,-0.02,-0.0204,-0.0294,-0.0302,-0.0309,-0.0269,-0.0346,-0.0349,-0.0351,-0.0351,-0.0349,-0.0347,0,0,0,0,0,0,-0.014,-0.0131,-0.01,-0.0137,-0.0137,-0.0182,-0.015,-0.0161,-0.0175,-0.0234,-0.0246,-0.0201,-0.0295,-0.0305,-0.0331,-0.0275,-0.035,-0.0353,-0.0353,-0.035,-0.0348,-0.0219,0,0,0,0,0,0,-0.0141,-0.013,-0.0109,-0.0133,-0.0134,-0.01,-0.0149,-0.0161,-0.0171,-0.0177,-0.0239,-0.025,-0.0296,-0.0326,-0.0334,-0.028,-0.0356,-0.0356,-0.0352,-0.0349,-0.0226,-0.0212,-0.0201,0,0,0,0,0,-0.0144,-0.0105,-0.0107,-0.0101,-0.0098,-0.0099,-0.0107,-0.0148,-0.017,-0.0167,-0.0217,-0.0247,-0.0308,-0.0328,-0.0338,-0.0283,-0.0357,-0.0353,-0.0349,-0.0231,-0.0215,-0.0201,0,0,0,0,0,0,-0.0154,-0.0109,-0.0113,-0.0067,-0.0074,-0.0109,-0.0114,-0.0134,-0.0172,-0.0179,-0.0242,-0.0255,-0.0253,-0.0288,-0.0309,-0.0272,-0.0329,-0.0327,-0.0236,-0.0222,-0.0209,-0.019,-0.0358,0,0,0,0,0,-0.0136,-0.0084,-0.0078,-0.0045,-0.0042,-0.0075,-0.0084,-0.01,-0.013,-0.0148,-0.0192,-0.0227,-0.0243,-0.0251,-0.0282,-0.0268,-0.0308,-0.0234,-0.0221,-0.021,-0.02,-0.023,-0.0219,-0.0333,-0.0333,-0.0333,0,0,-0.0138,-0.0102,-0.008,-0.0042,-0.0057,-0.0036,-0.0083,-0.0078,-0.006,-0.0151,-0.0154,-0.0193,-0.0234,-0.0222,-0.022,-0.0244,-0.0194,-0.0205,-0.0195,-0.0191,-0.0224,-0.0213,-0.0204,-0.033,-0.033,-0.0331,0,0,-0.0109,-0.0075,-0.0028,-0.0012,0.0003,-0.0007,0.0006,-0.0013,-0.0023,-0.0024,-0.0077,-0.0085,-0.0122,-0.0133,-0.0143,-0.0076,-0.0134,-0.0074,0.0013,-0.0015,-0.0006,0.0001,-0.0017,-0.0013,-0.0059,-0.0058,-0.0058,0,-0.012,-0.0043,-0.0025,0.0023,0.0042,0.0018,0.0055,0.005,0.0023,0.0033,-0.0006,-0.0035,-0.0072,-0.004,-0.0017,-0.0044,-0.0077,-0.0041,0.0001,0.0008,0.0013,-0.0008,-0.0005,-0.0052,-0.0052,-0.0053,-0.0054,0,-0.0054,0.0002,0.0028,0.0096,0.0116,0.0146,0.0158,0.0169,0.0157,0.0152,0.0169,0.0111,0.0099,0.0101,0.0059,0.01,0.006,0.0013,-0.0037,0.0032,0.0006,0.0007,-0.0042,-0.0044,-0.0046,-0.0048,0,0,-0.0053,0.0052,0.0065,0.0105,0.0164,0.0184,0.0237,0.0276,0.0315,0.0293,0.0333,0.0313,0.0283,0.0269,0.0226,0.0209,0.0223,0.0137,0.0132,0.012,0.0165,0.0153,0.0151,0.0173,0.0174,0.0174,0.0138,0,-0.0014,0.0083,0.0137,0.0218,0.0262,0.029,0.0344,0.0383,0.0396,0.0427,0.0404,0.0414,0.035,0.0347,0.0326,0.0242,0.0229,0.0238,0.0098,0.0095,0.0076,0.0154,0.0193,0.0164,0.0138,0.0138,0.0138,0,0.0051,0.0106,0.019,0.0294,0.0317,0.0362,0.0449,0.0497,0.0553,0.0567,0.0584,0.0552,0.0551,0.0467,0.0383,0.0387,0.0294,0.0222,0.0218,0.016,0.0085,0.0087,0.0166,-0.0,0.0139,0.0139,0.0139,0,0.0052,0.0159,0.0225,0.0259,0.0358,0.0405,0.0457,0.0534,0.0594,0.0651,0.0694,0.0673,0.0665,0.0557,0.043,0.0399,0.0318,0.025,0.0157,0.0155,0.014,0.0135,0.0042,0.0186,0.0186,0.0186,0.0186,0,0.01,0.0156,0.0226,0.0264,0.0349,0.0418,0.0517,0.0576,0.0668,0.0765,0.0757,0.0819,0.0681,0.0626,0.0481,0.0345,0.0359,0.0194,0.0153,0.0188,0.0188,-0.0,-0.0078,0.0185,0.0185,0.0185,0.0185,0,0.0107,0.0157,0.0233,0.0322,0.0357,0.0415,0.0552,0.0634,0.0717,0.084,0.0866,0.092,0.0869,0.0726,0.0562,0.0423,0.0209,0.0218,0.0279,0.0247,-0.0006,-0.0076,-0.0188,-0.0223,0.0113,0.0113,0.0112,0,0.0117,0.0155,0.0252,0.0306,0.0349,0.0443,0.053,0.064,0.0741,0.0915,0.0985,0.0997,0.105,0.0835,0.0591,0.0363,0.0213,0.0222,0.0167,0.0009,-0.01,-0.0154,-0.0179,0.0201,0.0201,0.0202,0.0202,0,0.0125,0.0159,0.0221,0.0329,0.0416,0.0531,0.066,0.0744,0.0902,0.1028,0.1209,0.1272,0.1113,0.0956,0.0644,0.046,0.0146,0.022,0.004,-0.0037,-0.0084,-0.0147,0.0192,0.0205,0.0205,0.0204,0.0204,0.0204,0.0124,0.0173,0.0267,0.0377,0.0486,0.0646,0.076,0.091,0.1098,0.1334,0.1362,0.1503,0.125,0.0862,0.0601,0.0134,0.0142,-0.0011,-0.0081,-0.0121,-0.0155,0.02,0.0169,0.0169,0.0169,0.0168,0.0168,0,0.0141,0.0223,0.0323,0.048,0.0623,0.0677,0.0881,0.102,0.1256,0.145,0.1615,0.1579,0.124,0.084,0.0243,-0.0096,-0.0212,-0.0287,-0.0363,-0.0372,-0.0074,-0.0073,-0.0136,-0.0136,-0.0136,-0.0136,-0.0136,-0.0135,0.0165,0.0269,0.0342,0.0583,0.0705,0.0917,0.1046,0.1246,0.1416,0.1685,0.1794,0.1848,0.1579,0.0489,-0.0242,-0.0417,-0.063,-0.0667,-0.0782,-0.061,-0.0591,-0.0572,-0.0593,-0.0764,-0.0765,-0.1024,-0.1027,-0.1029]}],[{"header":{"parameterUnit":"m.s-1","parameterCategory":2,"la1":30.2991,"la2":30.254,"lo1":-89.0895,"lo2":-89.0444,"dy":0.0017,"dx":0.0017,"nx":28,"ny":28,"refTime":"2023-08-07T09:00:00:Z","depth":"2","parameterNumber":2,"parameterNumberName":"U-component_of_CURRENTS"},"data":[0,0,0,0,0,0,0,0,0,0,0,0,0,0,0,0,0,0,0,0,0,0,0,0,0,0,0,0,0,0,0,0,0,0,0,0,0,0,0,0,0,0,0,0,0,0,0,0,0,0,0,0,0,0,0,0,0,0,0.1568,0.1573,0,0.1757,0.1756,0.1756,0.1994,0.2001,0.2008,0.2015,0.2216,0.2214,0.2213,0,0,0,0,0,0,0,0,0,0,0,0,0,0.1228,0.1231,0.1567,0.1573,0.1578,0.1757,0.1756,0.1756,0.1993,0.2002,0.201,0.2018,0.2216,0.2215,0.2213,0,0,0,0,0,0,0,0,0,0,0,0,0,0.136,0.1232,0.1567,0.1743,0.1763,0.1757,0.1756,0.1756,0.1991,0.2002,0.2012,0.2022,0.2216,0.2215,0.2213,0.1996,0,0,0.2208,0.2207,0,0,0,0,0,0,0,0,0.1352,0.1368,0.1712,0.1731,0.1754,0.1892,0.1713,0.1848,0.1989,0.1869,0.2015,0.2027,0.2123,0.2129,0.2094,0.2005,0.2014,0.2208,0.2207,0.2206,0.2206,0,0,0,0,0,0,0,0.1343,0.1361,0.1608,0.1718,0.1744,0.1753,0.178,0.1735,0.1909,0.188,0.1907,0.1978,0.2131,0.2094,0.2101,0.2017,0.2208,0.2207,0.2206,0.2205,0.2186,0.2186,0,0,0,0,0,0,0.1386,0.1352,0.1603,0.1618,0.1613,0.1754,0.1783,0.181,0.1911,0.1946,0.1969,0.1989,0.2092,0.2103,0.2109,0.2244,0.2206,0.2205,0.2204,0.2186,0.2186,0.2187,0,0,0,0,0,0,0.1376,0.1403,0.1596,0.1519,0.1549,0.1753,0.1778,0.1809,0.1881,0.1984,0.2015,0.2029,0.2101,0.2112,0.2111,0.2241,0.2204,0.2203,0.2185,0.2186,0.2186,0.2266,0,0,0,0,0,0,0.1364,0.1397,0.1422,0.152,0.1557,0.1634,0.1773,0.1806,0.192,0.1949,0.2041,0.2066,0.211,0.2112,0.2109,0.2238,0.2201,0.2184,0.2185,0.2186,0.2263,0.2269,0.2275,0,0,0,0,0,0.135,0.1421,0.1419,0.1454,0.1585,0.1636,0.1647,0.1806,0.1914,0.191,0.1971,0.2069,0.2123,0.2105,0.2103,0.2236,0.2184,0.2185,0.2186,0.226,0.2268,0.2275,0,0,0,0,0,0,0.1319,0.1455,0.1459,0.1569,0.1595,0.1692,0.1755,0.1819,0.1851,0.1915,0.199,0.201,0.2096,0.2092,0.2073,0.2231,0.2201,0.2201,0.2259,0.2266,0.2272,0.2338,0.22,0,0,0,0,0,0.13,0.1377,0.1447,0.1525,0.1546,0.1621,0.1673,0.1755,0.1819,0.1852,0.1894,0.1972,0.2063,0.2108,0.2136,0.2137,0.2168,0.2244,0.225,0.2255,0.2305,0.2394,0.2414,0.219,0.219,0.219,0,0,0.1324,0.1404,0.1454,0.1519,0.1559,0.1578,0.1674,0.1768,0.181,0.1855,0.1897,0.1968,0.2061,0.2127,0.2171,0.2162,0.2323,0.2257,0.2262,0.2309,0.2397,0.242,0.244,0.2191,0.2191,0.2191,0,0,0.1396,0.1443,0.1508,0.1514,0.1595,0.1609,0.1645,0.1701,0.1763,0.1762,0.1883,0.1997,0.2027,0.2158,0.2236,0.2261,0.2347,0.2313,0.2409,0.2494,0.2515,0.2534,0.2557,0.2578,0.2324,0.2325,0.2325,0,0.1401,0.1489,0.1525,0.1557,0.1602,0.1628,0.1662,0.1678,0.1724,0.1795,0.1805,0.2007,0.207,0.2283,0.2338,0.2295,0.2327,0.2383,0.2508,0.2528,0.2546,0.2566,0.2588,0.2329,0.2328,0.2328,0.2327,0,0.1498,0.1544,0.1588,0.1612,0.1622,0.1671,0.169,0.1704,0.1771,0.1833,0.2011,0.2065,0.2241,0.2291,0.2337,0.255,0.2523,0.2502,0.2502,0.2575,0.2588,0.261,0.2334,0.2333,0.2332,0.2331,0,0,0.16,0.1639,0.1658,0.1646,0.1669,0.1679,0.1731,0.1804,0.193,0.1958,0.2129,0.2305,0.2408,0.2501,0.259,0.2672,0.2813,0.2666,0.2668,0.2711,0.2978,0.2739,0.2738,0.2828,0.2833,0.2838,0.292,0,0.1659,0.1691,0.1724,0.174,0.1745,0.1765,0.1833,0.1906,0.198,0.2101,0.2262,0.2435,0.2471,0.2608,0.2706,0.2789,0.2882,0.2791,0.2884,0.2886,0.2685,0.276,0.2581,0.2623,0.2941,0.2944,0.2947,0,0.1757,0.1768,0.179,0.1816,0.1834,0.1866,0.1987,0.2048,0.2234,0.2322,0.2517,0.2616,0.2819,0.2796,0.3004,0.295,0.301,0.303,0.3033,0.2814,0.269,0.2608,0.265,0.2983,0.298,0.2977,0.2975,0,0.1799,0.1818,0.1831,0.1831,0.1872,0.195,0.2006,0.2171,0.2267,0.2483,0.2583,0.281,0.2937,0.3042,0.3136,0.3091,0.3296,0.3213,0.3052,0.3033,0.2902,0.286,0.3381,0.3381,0.338,0.338,0.338,0,0.1861,0.1876,0.1863,0.1884,0.1965,0.2009,0.2164,0.2268,0.2464,0.262,0.2738,0.2887,0.3014,0.3136,0.3189,0.3189,0.3353,0.3101,0.3061,0.2909,0.2869,0.3203,0.3181,0.3383,0.3383,0.3382,0.3381,0,0.1902,0.1897,0.1912,0.1966,0.1989,0.2063,0.2196,0.234,0.2511,0.2699,0.2778,0.297,0.3116,0.3203,0.3357,0.3228,0.3261,0.3244,0.3019,0.2947,0.2911,0.2893,0.2998,0.2991,0.2985,0.298,0.2975,0,0.1915,0.1931,0.194,0.1986,0.2028,0.212,0.2238,0.2376,0.25,0.2753,0.2855,0.3045,0.3148,0.3205,0.3086,0.3057,0.3247,0.2821,0.2672,0.2933,0.2885,0.2875,0.2865,0.2531,0.2524,0.2517,0.2512,0,0.1936,0.1948,0.1934,0.2025,0.2119,0.2173,0.2321,0.2383,0.259,0.2729,0.2932,0.3021,0.304,0.2877,0.277,0.2735,0.2772,0.2675,0.3115,0.2603,0.2485,0.2438,0.2447,0.2457,0.2463,0.2467,0.247,0.2472,0.1921,0.1919,0.1929,0.2019,0.2111,0.221,0.2249,0.2379,0.2502,0.2629,0.2803,0.2809,0.2721,0.2388,0.2338,0.2257,0.236,0.2251,0.2276,0.2307,0.2185,0.2057,0.1926,0.1928,0.193,0.1932,0.1934,0,0.1861,0.1881,0.1946,0.1998,0.2077,0.2171,0.2289,0.2298,0.237,0.2457,0.2531,0.2229,0.2071,0.2099,0.1817,0.1656,0.1717,0.1671,0.1783,0.1835,0.1882,0.1746,0.1367,0.1366,0.1365,0.1363,0,0,0.1837,0.1815,0.1848,0.1916,0.2008,0.2062,0.211,0.2112,0.2129,0.2054,0.1995,0.1969,0.1991,0.1633,0.1547,0.1462,0.1675,0.1429,0.1881,0.207,0.2117,0.2197,0.2039,0,0,0,0,0]},{"header":{"parameterUnit":"m.s-1","parameterCategory":2,"la1":30.2991,"la2":30.254,"lo1":-89.0895,"lo2":-89.0444,"dy":0.0017,"dx":0.0017,"nx":28,"ny":28,"refTime":"2023-08-07T09:00:00:Z","depth":"2","parameterNumber":3,"parameterNumberName":"V-component_of_CURRENTS"},"data":[0,0,0,0,0,0,0,0,0,0,0,0,0,0,0,0,0,0,0,0,0,0,0,0,0,0,0,0,0,0,0,0,0,0,0,0,0,0,0,0,0,0,0,0,0,0,0,0,0,0,0,0,0,0,0,0,0,0,0.002,0.0019,0,-0.0119,-0.0121,-0.0122,-0.0268,-0.027,-0.0272,-0.0274,-0.0491,-0.0495,-0.0499,0,0,0,0,0,0,0,0,0,0,0,0,0,0.0099,0.0098,0.002,0.0019,0.0017,-0.0119,-0.0121,-0.0123,-0.0268,-0.027,-0.0272,-0.0275,-0.049,-0.0494,-0.0499,0,0,0,0,0,0,0,0,0,0,0,0,0,0.0022,0.0098,0.002,-0.0071,-0.0081,-0.0118,-0.0121,-0.0123,-0.0267,-0.027,-0.0273,-0.0276,-0.0488,-0.0494,-0.05,-0.0478,0,0,-0.0518,-0.0521,0,0,0,0,0,0,0,0,0.0027,0.0019,-0.0056,-0.0065,-0.0076,-0.0179,-0.0173,-0.0246,-0.0266,-0.0197,-0.0274,-0.0277,-0.0391,-0.0405,-0.0425,-0.0488,-0.0497,-0.0519,-0.0522,-0.0525,-0.0526,0,0,0,0,0,0,0,0.0032,0.0024,-0.0036,-0.0058,-0.007,-0.0127,-0.014,-0.0187,-0.0278,-0.0203,-0.0214,-0.0227,-0.0398,-0.0419,-0.0431,-0.0501,-0.0518,-0.0524,-0.0527,-0.053,-0.0617,-0.0616,0,0,0,0,0,0,0.0058,0.003,-0.0031,-0.004,-0.003,-0.0125,-0.0141,-0.0143,-0.0276,-0.0298,-0.0225,-0.0234,-0.0407,-0.0424,-0.044,-0.0444,-0.0525,-0.053,-0.0534,-0.0618,-0.0617,-0.0615,0,0,0,0,0,0,0.006,0.0054,-0.0026,-0.0009,-0.0023,-0.0123,-0.0125,-0.0144,-0.0178,-0.0291,-0.0316,-0.0241,-0.041,-0.0431,-0.0506,-0.0453,-0.0533,-0.0538,-0.062,-0.0618,-0.0616,-0.0439,0,0,0,0,0,0,0.0063,0.0056,0.0054,-0.0006,-0.0023,-0.0033,-0.0123,-0.0145,-0.0181,-0.0194,-0.0312,-0.0335,-0.0414,-0.0497,-0.0512,-0.0463,-0.0543,-0.0621,-0.0619,-0.0616,-0.0447,-0.0432,-0.0419,0,0,0,0,0,0.0067,0.0082,0.0055,0.0046,-0.0019,-0.0031,-0.0044,-0.0127,-0.0178,-0.0173,-0.0279,-0.0332,-0.0492,-0.0501,-0.0519,-0.047,-0.0622,-0.0619,-0.0617,-0.0453,-0.0435,-0.0419,0,0,0,0,0,0,0.0081,0.0067,0.0036,0.0034,0.0011,-0.0056,-0.0073,-0.0113,-0.0188,-0.0217,-0.0329,-0.0358,-0.0401,-0.0462,-0.047,-0.049,-0.0559,-0.0559,-0.0428,-0.0412,-0.0398,-0.0366,-0.0548,0,0,0,0,0,0.0097,0.0121,0.0082,0.008,0.0068,0.0004,-0.0018,-0.0057,-0.0127,-0.0164,-0.0251,-0.0339,-0.0395,-0.0429,-0.0497,-0.0506,-0.0555,-0.0485,-0.047,-0.0458,-0.0446,-0.0488,-0.0476,-0.0606,-0.0606,-0.0606,0,0,0.0089,0.0094,0.0094,0.0089,0.005,0.0071,-0.0018,-0.0033,-0.0014,-0.0173,-0.0205,-0.0299,-0.0392,-0.0416,-0.0436,-0.0464,-0.0441,-0.0454,-0.0443,-0.0438,-0.0483,-0.0471,-0.0459,-0.0604,-0.0604,-0.0605,0,0,0.0111,0.0103,0.0127,0.0143,0.0127,0.011,0.0117,0.0062,0.0031,0.0004,-0.0109,-0.0176,-0.0262,-0.0318,-0.0354,-0.0298,-0.0372,-0.0314,-0.0208,-0.0248,-0.0237,-0.0228,-0.0243,-0.0237,-0.0298,-0.0297,-0.0297,0,0.0104,0.0137,0.0128,0.0173,0.0192,0.0143,0.018,0.0169,0.0096,0.0075,0.0015,-0.0123,-0.0204,-0.0225,-0.0214,-0.026,-0.0299,-0.026,-0.0227,-0.022,-0.0214,-0.0231,-0.0227,-0.0289,-0.0289,-0.029,-0.0291,0,0.015,0.0185,0.0205,0.0264,0.0291,0.032,0.0323,0.0323,0.028,0.0247,0.0196,0.0073,-0.0012,-0.0031,-0.0108,-0.0098,-0.0143,-0.0208,-0.0261,-0.0189,-0.0213,-0.0211,-0.0276,-0.0279,-0.0282,-0.0284,0,0,0.0138,0.0217,0.0233,0.0279,0.035,0.0379,0.0438,0.0459,0.0473,0.041,0.0413,0.0313,0.0221,0.0173,0.0071,0.004,0.0056,-0.0056,-0.0062,-0.0053,-0.0017,-0.0011,-0.001,-0.0013,-0.0012,-0.0012,-0.0039,0,0.0173,0.0271,0.0316,0.0426,0.0473,0.0505,0.0559,0.0586,0.0571,0.0565,0.0476,0.0423,0.0314,0.0257,0.0219,0.0079,0.0061,0.007,-0.0104,-0.0108,-0.0098,-0.0007,-0.0054,-0.008,-0.0038,-0.0038,-0.0038,0,0.0231,0.0288,0.0379,0.0504,0.0524,0.0581,0.0667,0.0714,0.0723,0.0704,0.0661,0.0575,0.0521,0.041,0.0266,0.027,0.015,0.0052,0.0047,-0.0009,-0.0099,-0.0154,-0.008,-0.0037,-0.0037,-0.0037,-0.0037,0,0.0243,0.0368,0.0439,0.0487,0.059,0.0625,0.0677,0.0721,0.0762,0.0778,0.0793,0.071,0.0655,0.0516,0.0327,0.0287,0.0174,0.0089,-0.0005,-0.0006,-0.011,-0.012,0.0004,0.0004,0.0004,0.0004,0.0004,0,0.0299,0.0365,0.0437,0.0473,0.0554,0.0635,0.0708,0.0748,0.0808,0.0877,0.0837,0.0869,0.0671,0.0583,0.0401,0.0229,0.0233,0.0043,-0.0005,-0.0047,-0.0051,-0.0083,-0.0093,0.0003,0.0003,0.0004,0.0004,0,0.0302,0.0349,0.0433,0.052,0.055,0.0603,0.0726,0.0788,0.0844,0.0942,0.0954,0.0971,0.0877,0.0691,0.0475,0.0325,0.0152,0.0081,0.0069,0.0021,-0.0019,-0.002,-0.0011,-0.0011,-0.0011,-0.0011,-0.0011,0,0.0304,0.0347,0.0442,0.0482,0.0509,0.0599,0.0667,0.077,0.0864,0.1014,0.1074,0.1042,0.1057,0.0796,0.0489,0.022,0.0182,0.0029,-0.0053,0.0031,-0.0017,-0.0018,-0.0019,-0.012,-0.0121,-0.0122,-0.0122,0,0.0314,0.0341,0.0399,0.0472,0.0541,0.0661,0.0774,0.0858,0.1015,0.1125,0.1281,0.1313,0.1076,0.0801,0.0449,0.0266,0.0073,0.001,0.0092,-0.0096,-0.007,-0.0118,-0.0116,-0.0128,-0.0127,-0.0127,-0.0127,-0.0126,0.031,0.0349,0.0426,0.0507,0.0602,0.0752,0.0856,0.1016,0.1199,0.1376,0.1382,0.1396,0.1055,0.0578,0.0309,0.0032,0.0034,-0.0099,-0.0098,-0.0096,-0.009,-0.0065,-0.0119,-0.0119,-0.0118,-0.0118,-0.0117,0,0.0321,0.0384,0.0471,0.0593,0.0729,0.0765,0.0969,0.1108,0.1345,0.1419,0.1508,0.1168,0.0868,0.0548,0.0096,-0.015,-0.0181,-0.0191,-0.0221,-0.0214,-0.0209,-0.021,-0.027,-0.027,-0.0271,-0.0271,0,0,0.0329,0.0419,0.0487,0.0709,0.0801,0.0989,0.1112,0.1305,0.1412,0.1518,0.1457,0.1272,0.089,0.0501,0.0158,-0.0041,-0.0045,-0.0061,0.0076,0.0086,0.0096,-0.0155,-0.0149,0,0,0,0,0]}],[{"header":{"parameterUnit":"m.s-1","parameterCategory":2,"la1":30.2991,"la2":30.254,"lo1":-89.0895,"lo2":-89.0444,"dy":0.0017,"dx":0.0017,"nx":28,"ny":28,"refTime":"2023-08-07T09:00:00:Z","depth":"4","parameterNumber":2,"parameterNumberName":"U-component_of_CURRENTS"},"data":[0,0,0,0,0,0,0,0,0,0,0,0,0,0,0,0,0,0,0,0,0,0,0,0,0,0,0,0,0,0,0,0,0,0,0,0,0,0,0,0,0,0,0,0,0,0,0,0,0,0,0,0,0,0,0,0,0,0,-0.0284,-0.0285,0,-0.0343,-0.0344,-0.0344,-0.038,-0.038,-0.0381,-0.0381,-0.0438,-0.0439,-0.044,0,0,0,0,0,0,0,0,0,0,0,0,0,-0.024,-0.024,-0.0284,-0.0285,-0.0286,-0.0343,-0.0344,-0.0344,-0.038,-0.038,-0.0381,-0.0381,-0.0437,-0.0438,-0.044,0,0,0,0,0,0,0,0,0,0,0,0,0,-0.0271,-0.024,-0.0283,-0.0314,-0.0317,-0.0343,-0.0344,-0.0344,-0.0379,-0.038,-0.0381,-0.0382,-0.0437,-0.0438,-0.044,-0.0433,0,0,-0.0444,-0.0445,0,0,0,0,0,0,0,0,-0.0269,-0.0272,-0.0308,-0.0312,-0.0316,-0.0359,-0.0349,-0.0375,-0.0379,-0.0351,-0.0381,-0.0382,-0.0413,-0.0416,-0.042,-0.0435,-0.0438,-0.0445,-0.0445,-0.0446,-0.0446,0,0,0,0,0,0,0,-0.0267,-0.027,-0.0303,-0.0309,-0.0314,-0.0338,-0.0342,-0.0354,-0.0374,-0.0354,-0.0358,-0.0371,-0.0415,-0.0418,-0.0422,-0.0439,-0.0444,-0.0446,-0.0447,-0.0447,-0.0495,-0.0496,0,0,0,0,0,0,-0.0265,-0.0268,-0.0301,-0.0305,-0.0299,-0.0338,-0.0343,-0.0341,-0.0374,-0.0381,-0.037,-0.0372,-0.0415,-0.042,-0.0424,-0.0502,-0.0446,-0.0447,-0.0448,-0.0495,-0.0496,-0.0496,0,0,0,0,0,0,-0.0263,-0.0267,-0.0299,-0.0292,-0.0299,-0.0338,-0.0335,-0.0341,-0.0392,-0.0387,-0.0393,-0.042,-0.0416,-0.0422,-0.0443,-0.0501,-0.0448,-0.0449,-0.0495,-0.0495,-0.0496,-0.0603,0,0,0,0,0,0,-0.0261,-0.0265,-0.0278,-0.0291,-0.0299,-0.0334,-0.0335,-0.0342,-0.0398,-0.0403,-0.0431,-0.0434,-0.0417,-0.044,-0.0444,-0.0502,-0.0451,-0.0494,-0.0495,-0.0496,-0.0599,-0.0608,-0.0615,0,0,0,0,0,-0.0259,-0.0273,-0.0278,-0.0283,-0.0309,-0.0336,-0.0342,-0.037,-0.04,-0.042,-0.0426,-0.0436,-0.0448,-0.0441,-0.0446,-0.0506,-0.0494,-0.0495,-0.0495,-0.0596,-0.0606,-0.0614,0,0,0,0,0,0,-0.0257,-0.0279,-0.0284,-0.0302,-0.0327,-0.0344,-0.0391,-0.0401,-0.0425,-0.0452,-0.0438,-0.044,-0.0481,-0.0466,-0.046,-0.0515,-0.0474,-0.0476,-0.0549,-0.0559,-0.0566,-0.0551,-0.0452,0,0,0,0,0,-0.0262,-0.0287,-0.03,-0.0322,-0.0352,-0.0381,-0.0407,-0.0423,-0.0441,-0.0458,-0.0464,-0.0474,-0.048,-0.0499,-0.0494,-0.0531,-0.0505,-0.0568,-0.0576,-0.0583,-0.0569,-0.0591,-0.06,-0.0499,-0.0499,-0.0499,0,0,-0.0261,-0.0288,-0.0295,-0.0326,-0.0368,-0.0384,-0.0401,-0.0463,-0.0468,-0.0459,-0.0492,-0.0505,-0.0491,-0.0521,-0.054,-0.0526,-0.0594,-0.0584,-0.0591,-0.0573,-0.0593,-0.0603,-0.0612,-0.0499,-0.0499,-0.0499,0,0,-0.0289,-0.0315,-0.035,-0.0376,-0.0443,-0.0439,-0.0466,-0.0502,-0.0526,-0.0545,-0.0542,-0.0582,-0.059,-0.0591,-0.0592,-0.0638,-0.063,-0.0655,-0.0698,-0.0721,-0.073,-0.0737,-0.0708,-0.0712,-0.0667,-0.0668,-0.0668,0,-0.0299,-0.0326,-0.0364,-0.0412,-0.0436,-0.0465,-0.0494,-0.0507,-0.0533,-0.0555,-0.0568,-0.0604,-0.0616,-0.0645,-0.0663,-0.0662,-0.0652,-0.0675,-0.0734,-0.0741,-0.0747,-0.0715,-0.0718,-0.0673,-0.0672,-0.0672,-0.0671,0,-0.0332,-0.0371,-0.0413,-0.0456,-0.0479,-0.0524,-0.0536,-0.0566,-0.0599,-0.0603,-0.0662,-0.0674,-0.0691,-0.0723,-0.0712,-0.077,-0.0739,-0.0742,-0.072,-0.0764,-0.0727,-0.0728,-0.068,-0.0679,-0.0677,-0.0676,0,0,-0.0331,-0.0413,-0.0432,-0.0458,-0.0513,-0.0526,-0.0558,-0.0578,-0.0606,-0.0649,-0.0684,-0.0732,-0.0763,-0.0762,-0.0781,-0.0818,-0.0867,-0.0811,-0.0809,-0.0794,-0.0886,-0.0687,-0.0668,-0.0898,-0.0899,-0.09,-0.084,0,-0.0359,-0.0415,-0.0452,-0.0493,-0.0525,-0.0561,-0.0574,-0.06,-0.063,-0.066,-0.0715,-0.0746,-0.0768,-0.0804,-0.0846,-0.0853,-0.0877,-0.088,-0.0831,-0.0827,-0.0658,-0.0666,-0.0904,-0.0841,-0.0841,-0.0841,-0.0842,0,-0.0385,-0.0421,-0.0466,-0.0515,-0.0538,-0.0555,-0.0595,-0.0613,-0.066,-0.0695,-0.0749,-0.0768,-0.0818,-0.0839,-0.0875,-0.0881,-0.0887,-0.0897,-0.0895,-0.0666,-0.063,-0.0785,-0.0844,-0.0843,-0.0843,-0.0843,-0.0843,0,-0.0359,-0.043,-0.0457,-0.0478,-0.0532,-0.0574,-0.0594,-0.0642,-0.0653,-0.0719,-0.0728,-0.0792,-0.0807,-0.0851,-0.0847,-0.088,-0.0863,-0.0904,-0.0722,-0.0707,-0.0863,-0.0855,-0.0929,-0.0929,-0.0929,-0.093,-0.093,0,-0.036,-0.0402,-0.0455,-0.0484,-0.0506,-0.0569,-0.0605,-0.0639,-0.0685,-0.0646,-0.0746,-0.0699,-0.0817,-0.0804,-0.0835,-0.074,-0.0844,-0.0704,-0.0678,-0.0905,-0.0903,-0.0863,-0.0856,-0.0927,-0.0928,-0.0928,-0.0929,0,-0.035,-0.0387,-0.0432,-0.0496,-0.0507,-0.0534,-0.0577,-0.0585,-0.0649,-0.0599,-0.061,-0.0637,-0.0582,-0.0648,-0.0681,-0.0669,-0.0643,-0.0589,-0.0775,-0.0764,-0.0481,-0.0481,-0.0389,-0.0381,-0.0375,-0.037,-0.0365,0,-0.0348,-0.0376,-0.0425,-0.0418,-0.046,-0.0494,-0.0497,-0.0561,-0.0525,-0.0491,-0.0423,-0.0403,-0.0388,-0.0289,-0.0381,-0.0398,-0.0405,-0.0413,-0.05,-0.0441,-0.0426,-0.0436,-0.0444,-0.0355,-0.0353,-0.0351,-0.035,0,-0.0352,-0.0386,-0.0402,-0.0383,-0.0389,-0.0372,-0.0365,-0.033,-0.0331,-0.0365,-0.0203,-0.0176,-0.009,-0.0122,-0.0135,-0.0158,-0.0432,-0.0348,-0.0363,-0.0445,-0.0399,-0.0393,-0.0408,-0.0328,-0.0331,-0.0333,-0.0334,0,-0.0359,-0.0345,-0.0354,-0.033,-0.0306,-0.0248,-0.0265,-0.0176,-0.0157,-0.0096,-0.0001,0.0013,0.0002,0.0017,0.0022,0.001,-0.0012,-0.0069,-0.01,-0.0126,-0.0072,0.0023,0.027,0,0,0,0,0,-0.0337,-0.0307,-0.0284,-0.0239,-0.0207,-0.0197,-0.0151,-0.016,-0.0116,0.0044,0.0017,0.0127,0.0172,0.0157,0.0192,0.0105,-0.0055,0.0144,-0.0147,-0.0204,-0.023,-0.0194,0,0,0,0,0,0,-0.0313,-0.0299,-0.027,-0.0169,-0.0119,-0.0076,-0.0054,-0.0033,0.0058,0.0103,0.0124,0.0156,0.0171,0.0165,0.0202,0.0197,0.0023,0.015,0.0152,-0.019,-0.0213,-0.0234,-0.0206,0,0,0,0,0]},{"header":{"parameterUnit":"m.s-1","parameterCategory":2,"la1":30.2991,"la2":30.254,"lo1":-89.0895,"lo2":-89.0444,"dy":0.0017,"dx":0.0017,"nx":28,"ny":28,"refTime":"2023-08-07T09:00:00:Z","depth":"4","parameterNumber":3,"parameterNumberName":"V-component_of_CURRENTS"},"data":[0,0,0,0,0,0,0,0,0,0,0,0,0,0,0,0,0,0,0,0,0,0,0,0,0,0,0,0,0,0,0,0,0,0,0,0,0,0,0,0,0,0,0,0,0,0,0,0,0,0,0,0,0,0,0,0,0,0,0.008,0.0081,0,0.0099,0.0098,0.0098,0.0122,0.0123,0.0124,0.0125,0.0065,0.0063,0.006,0,0,0,0,0,0,0,0,0,0,0,0,0,0.0075,0.0074,0.008,0.0081,0.0082,0.0099,0.0098,0.0098,0.0121,0.0123,0.0124,0.0126,0.0066,0.0063,0.006,0,0,0,0,0,0,0,0,0,0,0,0,0,0.0075,0.0073,0.008,0.0103,0.0106,0.0099,0.0098,0.0097,0.0121,0.0123,0.0125,0.0126,0.0067,0.0063,0.0059,-0.0003,0,0,0.0047,0.0045,0,0,0,0,0,0,0,0,0.0075,0.0074,0.0098,0.0101,0.0105,0.0118,0.0075,0.0063,0.0121,0.0105,0.0125,0.0127,0.008,0.0075,0.0063,-0.0006,-0.0008,0.0046,0.0044,0.0042,0.0041,0,0,0,0,0,0,0,0.0075,0.0073,0.0078,0.0099,0.0103,0.0117,0.0117,0.0073,0.0073,0.0107,0.0111,0.0127,0.008,0.0067,0.0061,-0.0009,0.0047,0.0043,0.004,0.0039,-0.0104,-0.0105,0,0,0,0,0,0,0.0088,0.0073,0.0078,0.0079,0.0104,0.0116,0.0116,0.0104,0.0076,0.0077,0.0126,0.0128,0.0073,0.0066,0.0059,0.0012,0.0042,0.0038,0.0036,-0.0103,-0.0104,-0.0106,0,0,0,0,0,0,0.0087,0.0087,0.0077,0.0086,0.0087,0.0115,0.01,0.0104,0.0107,0.0093,0.0091,0.0129,0.0074,0.0065,0.0014,0.0009,0.0037,0.0033,-0.0101,-0.0103,-0.0105,-0.0101,0,0,0,0,0,0,0.0086,0.0085,0.0075,0.0086,0.0087,0.0066,0.01,0.0103,0.0118,0.0122,0.0094,0.009,0.0075,0.002,0.001,0.0004,0.003,-0.01,-0.0102,-0.0105,-0.0099,-0.0103,-0.0105,0,0,0,0,0,0.0085,0.0069,0.0073,0.0075,0.0072,0.0066,0.0065,0.0087,0.0117,0.0099,0.0083,0.0092,-0.0002,0.0015,0.0003,-0.0004,-0.0098,-0.0101,-0.0104,-0.0098,-0.0102,-0.0105,0,0,0,0,0,0,0.0063,0.0071,0.0076,0.0063,0.0062,0.0074,0.0078,0.0089,0.0064,0.0073,0.0061,0.0052,0.0009,-0.0008,0.0011,-0.0054,-0.0044,-0.0049,-0.0035,-0.0039,-0.0042,-0.0042,0.0026,0,0,0,0,0,0.0052,0.0041,0.0049,0.0038,0.0046,0.0061,0.0064,0.0071,0.0062,0.0056,0.0038,0.0015,-0.0018,-0.0034,-0.0073,-0.0119,-0.0116,-0.0128,-0.0131,-0.0133,-0.0143,-0.0142,-0.0145,-0.0116,-0.0116,-0.0116,0,0,0.0045,0.0048,0.0044,0.0034,0.0045,0.0015,0.0065,0.0069,0.0033,0.0048,-0.0003,-0.0004,-0.0035,-0.0082,-0.0101,-0.0091,-0.0141,-0.0137,-0.0138,-0.0147,-0.0145,-0.0148,-0.015,-0.0118,-0.0117,-0.0117,0,0,0.002,0.0027,0.0007,-0.0006,0.0004,-0.0,0.0002,0.0005,0.0002,-0.0046,-0.0037,-0.005,-0.0103,-0.0124,-0.014,-0.019,-0.016,-0.0182,-0.0193,-0.0192,-0.0194,-0.0195,-0.0189,-0.019,-0.0178,-0.0178,-0.0178,0,0.0009,-0.0022,0.0,-0.0031,-0.0044,-0.0011,-0.005,-0.0065,-0.0087,-0.0093,-0.0066,-0.0115,-0.0131,-0.018,-0.0179,-0.0197,-0.0176,-0.0171,-0.0193,-0.0194,-0.0196,-0.0189,-0.0191,-0.0178,-0.0178,-0.0178,-0.0178,0,-0.0034,-0.0069,-0.0074,-0.0116,-0.0138,-0.0156,-0.0171,-0.0188,-0.0171,-0.0176,-0.0199,-0.0206,-0.0219,-0.0221,-0.0211,-0.0227,-0.0202,-0.0196,-0.0175,-0.0198,-0.0191,-0.0192,-0.0178,-0.0178,-0.0178,-0.0178,0,0,-0.0035,-0.0096,-0.0099,-0.0141,-0.0182,-0.0203,-0.0258,-0.0291,-0.0304,-0.0306,-0.0322,-0.0341,-0.0285,-0.03,-0.0274,-0.0265,-0.0246,-0.0216,-0.0216,-0.0196,-0.022,-0.0263,-0.0268,-0.0217,-0.0218,-0.0218,-0.0207,0,-0.0074,-0.015,-0.0177,-0.0266,-0.0306,-0.0319,-0.0372,-0.0401,-0.0396,-0.0408,-0.0381,-0.038,-0.0333,-0.0298,-0.0289,-0.0255,-0.0249,-0.0249,-0.0215,-0.0215,-0.0238,-0.0271,-0.0219,-0.0207,-0.0208,-0.0208,-0.0208,0,-0.0111,-0.0157,-0.024,-0.0336,-0.035,-0.0396,-0.0444,-0.0485,-0.0497,-0.048,-0.0457,-0.0424,-0.0402,-0.0351,-0.0312,-0.0298,-0.0259,-0.0237,-0.0235,-0.0281,-0.0261,-0.0185,-0.021,-0.021,-0.021,-0.0209,-0.0209,0,-0.0111,-0.0211,-0.0273,-0.0307,-0.04,-0.0425,-0.0454,-0.0485,-0.0505,-0.0489,-0.0479,-0.0457,-0.042,-0.0378,-0.0316,-0.0291,-0.0283,-0.0252,-0.0271,-0.0272,-0.0234,-0.0232,-0.0245,-0.0245,-0.0245,-0.0245,-0.0245,0,-0.0147,-0.0211,-0.0265,-0.0302,-0.0362,-0.0415,-0.0456,-0.0474,-0.0492,-0.0501,-0.0477,-0.0472,-0.0414,-0.0399,-0.0342,-0.0317,-0.0302,-0.0288,-0.0281,-0.0233,-0.0232,-0.0234,-0.0232,-0.0245,-0.0245,-0.0245,-0.0245,0,-0.0164,-0.0203,-0.0282,-0.035,-0.0364,-0.0392,-0.0445,-0.0475,-0.0472,-0.0479,-0.0461,-0.047,-0.044,-0.0422,-0.0372,-0.0354,-0.0327,-0.0326,-0.0288,-0.0277,-0.0305,-0.0304,-0.0336,-0.0338,-0.0339,-0.034,-0.0341,0,-0.0187,-0.0218,-0.0286,-0.0299,-0.0324,-0.0362,-0.0394,-0.0439,-0.0449,-0.0471,-0.0467,-0.0471,-0.0463,-0.0429,-0.0423,-0.038,-0.037,-0.0359,-0.0325,-0.0329,-0.0318,-0.0315,-0.0312,-0.0343,-0.0344,-0.0344,-0.0344,0,-0.0222,-0.0231,-0.0285,-0.0281,-0.031,-0.0379,-0.0399,-0.0395,-0.0427,-0.0456,-0.0429,-0.0431,-0.0441,-0.0424,-0.0421,-0.0383,-0.0367,-0.0373,-0.0368,-0.0336,-0.0338,-0.0325,-0.0321,-0.0349,-0.0348,-0.0348,-0.0348,0,-0.0234,-0.0265,-0.0279,-0.0275,-0.03,-0.0327,-0.0377,-0.0378,-0.0402,-0.0389,-0.0389,-0.04,-0.0416,-0.043,-0.0419,-0.0409,-0.0387,-0.0351,-0.0347,-0.0343,-0.036,-0.0365,-0.0391,0,0,0,0,0,-0.0229,-0.0242,-0.0259,-0.0277,-0.0287,-0.0288,-0.0346,-0.039,-0.0401,-0.0363,-0.036,-0.0354,-0.0366,-0.0396,-0.0384,-0.046,-0.0409,-0.0451,-0.037,-0.0375,-0.037,-0.0395,0,0,0,0,0,0,-0.0239,-0.0256,-0.0261,-0.0233,-0.0208,-0.0262,-0.0277,-0.0325,-0.0292,-0.0288,-0.0289,-0.0322,-0.0338,-0.0331,-0.036,-0.0373,-0.0318,-0.0472,-0.0472,-0.0378,-0.0374,-0.0369,-0.0393,0,0,0,0,0]}]]